[[{"header":{"parameterUnit":"m.s-1","parameterCategory":1,"la1":30.2991,"la2":30.254,"lo1":-89.0895,"lo2":-89.0444,"dy":0.0017,"dx":0.0017,"nx":28,"ny":28,"refTime":"2024-03-27T03:00:00:Z","depth":0,"parameterNumber":2,"parameterNumberName":"U-component_of_WINDS"},"data":[0,0,0,0,0,0,0,0,0,0,0,0,0,0,0,0,0,0,0,0,0,0,0,0,0,0,0,0,0,0,0,0,0,0,0,0,0,0,0,0,0,0,0,0,0,0,0,0,0,0,0,0,0,0,0,0,0,0,-0.14,-0.14,0,-0.1416,-0.1417,-0.1417,-0.1402,-0.1401,-0.14,-0.14,-0.1418,-0.1419,-0.142,0,0,0,0,0,0,0,0,0,0,0,0,0,-0.1356,-0.1357,-0.14,-0.14,-0.1401,-0.1416,-0.1417,-0.1417,-0.1402,-0.1401,-0.14,-0.1399,-0.1418,-0.1419,-0.142,0,0,0,0,0,0,0,0,0,0,0,0,0,-0.1374,-0.1357,-0.14,-0.1395,-0.1394,-0.1416,-0.1417,-0.1417,-0.1402,-0.1401,-0.14,-0.1399,-0.1417,-0.1419,-0.142,-0.1449,0,0,-0.1425,-0.1426,0,0,0,0,0,0,0,0,-0.1373,-0.1376,-0.1395,-0.1395,-0.1395,-0.1406,-0.1408,-0.1428,-0.1402,-0.1399,-0.14,-0.1399,-0.1415,-0.1417,-0.1422,-0.145,-0.145,-0.1425,-0.1426,-0.1427,-0.1428,0,0,0,0,0,0,0,-0.1372,-0.1375,-0.1407,-0.1396,-0.1395,-0.1392,-0.1393,-0.1411,-0.1412,-0.1399,-0.1398,-0.14,-0.1415,-0.142,-0.1422,-0.1451,-0.1425,-0.1427,-0.1428,-0.1428,-0.1501,-0.1502,0,0,0,0,0,0,-0.1371,-0.1374,-0.1406,-0.1407,-0.1381,-0.1393,-0.1395,-0.1403,-0.1412,-0.1412,-0.1401,-0.1399,-0.1418,-0.142,-0.1423,-0.1456,-0.1427,-0.1429,-0.143,-0.15,-0.1501,-0.1502,0,0,0,0,0,0,-0.137,-0.1374,-0.1405,-0.139,-0.1394,-0.1395,-0.1405,-0.1404,-0.141,-0.1413,-0.1413,-0.1407,-0.1417,-0.142,-0.1442,-0.1456,-0.1429,-0.1431,-0.1499,-0.1501,-0.1502,-0.1523,0,0,0,0,0,0,-0.1369,-0.1374,-0.1385,-0.1391,-0.1395,-0.1425,-0.1405,-0.1405,-0.1412,-0.1411,-0.1418,-0.1419,-0.1417,-0.144,-0.1444,-0.1458,-0.1432,-0.1498,-0.15,-0.1501,-0.1521,-0.1525,-0.1528,0,0,0,0,0,-0.1367,-0.1391,-0.1385,-0.1389,-0.1408,-0.1425,-0.1428,-0.1425,-0.1414,-0.1425,-0.1426,-0.1419,-0.1454,-0.1442,-0.1446,-0.1461,-0.1497,-0.1499,-0.1501,-0.1519,-0.1524,-0.1528,0,0,0,0,0,0,-0.1388,-0.1392,-0.1386,-0.1411,-0.1418,-0.1423,-0.1437,-0.143,-0.144,-0.1438,-0.1434,-0.1436,-0.1459,-0.1462,-0.1449,-0.1488,-0.1474,-0.1477,-0.1486,-0.149,-0.1494,-0.1493,-0.1433,0,0,0,0,0,-0.1395,-0.1408,-0.1411,-0.1433,-0.1437,-0.1436,-0.1443,-0.144,-0.1447,-0.145,-0.1453,-0.1461,-0.1473,-0.1482,-0.1494,-0.1521,-0.1522,-0.1533,-0.1537,-0.154,-0.1543,-0.1556,-0.1561,-0.151,-0.151,-0.151,0,0,-0.1411,-0.1414,-0.1423,-0.1437,-0.1442,-0.1456,-0.1439,-0.1454,-0.1464,-0.1453,-0.1473,-0.1475,-0.1483,-0.1507,-0.1518,-0.1511,-0.1557,-0.1542,-0.1545,-0.1546,-0.1559,-0.1564,-0.1568,-0.1511,-0.1511,-0.1511,0,0,-0.1446,-0.145,-0.1469,-0.1474,-0.1481,-0.1479,-0.1484,-0.1489,-0.149,-0.151,-0.1501,-0.1513,-0.1535,-0.154,-0.1546,-0.1581,-0.1574,-0.1585,-0.1605,-0.1618,-0.1622,-0.1626,-0.1638,-0.1643,-0.1588,-0.1588,-0.1588,0,-0.1466,-0.1486,-0.148,-0.1496,-0.1502,-0.149,-0.1509,-0.1514,-0.1524,-0.1529,-0.152,-0.1546,-0.1551,-0.1576,-0.1584,-0.1589,-0.1594,-0.1585,-0.1622,-0.1625,-0.1629,-0.1641,-0.1645,-0.1589,-0.1589,-0.1589,-0.1589,0,-0.1508,-0.1522,-0.1536,-0.1546,-0.1553,-0.1571,-0.1567,-0.1576,-0.1571,-0.1571,-0.1591,-0.1595,-0.1607,-0.1612,-0.1609,-0.1636,-0.1632,-0.1622,-0.1608,-0.1635,-0.1646,-0.1651,-0.1591,-0.1591,-0.159,-0.159,0,0,-0.1559,-0.1563,-0.1569,-0.1572,-0.1578,-0.1589,-0.1605,-0.1615,-0.1623,-0.163,-0.1643,-0.1661,-0.1652,-0.1658,-0.1654,-0.1666,-0.1693,-0.1655,-0.1655,-0.1662,-0.1723,-0.1731,-0.1736,-0.1688,-0.1689,-0.1689,-0.1723,0,-0.1595,-0.1623,-0.1617,-0.1644,-0.1656,-0.1644,-0.1658,-0.1663,-0.1663,-0.1673,-0.1673,-0.1685,-0.1672,-0.1676,-0.1687,-0.1687,-0.1705,-0.1685,-0.1701,-0.1701,-0.17,-0.1742,-0.175,-0.1782,-0.1727,-0.1728,-0.1728,0,-0.1641,-0.1649,-0.1677,-0.1679,-0.1684,-0.1696,-0.1705,-0.1715,-0.172,-0.1718,-0.1724,-0.1718,-0.1734,-0.1717,-0.1739,-0.1725,-0.1731,-0.1732,-0.1733,-0.1735,-0.1717,-0.1746,-0.1792,-0.1797,-0.1735,-0.1735,-0.1734,0,-0.1676,-0.1693,-0.1712,-0.1715,-0.1718,-0.1727,-0.1728,-0.1732,-0.1738,-0.1746,-0.175,-0.1759,-0.1764,-0.1772,-0.1768,-0.1756,-0.179,-0.1773,-0.1789,-0.1789,-0.1798,-0.1798,-0.1846,-0.1801,-0.1801,-0.18,-0.18,0,-0.1717,-0.1735,-0.1727,-0.1739,-0.1758,-0.175,-0.1769,-0.1769,-0.1772,-0.1784,-0.1774,-0.1784,-0.1778,-0.1788,-0.1785,-0.1803,-0.1806,-0.1805,-0.1804,-0.1807,-0.1807,-0.1811,-0.1809,-0.1802,-0.1801,-0.1801,-0.1801,0,-0.176,-0.1755,-0.1775,-0.1775,-0.1775,-0.1789,-0.1789,-0.18,-0.1798,-0.1812,-0.1815,-0.1812,-0.1823,-0.182,-0.1832,-0.183,-0.1853,-0.1849,-0.1851,-0.1851,-0.1867,-0.1866,-0.1921,-0.1928,-0.1877,-0.1877,-0.1878,0,-0.1787,-0.18,-0.1801,-0.1807,-0.1809,-0.182,-0.1826,-0.1818,-0.1825,-0.183,-0.184,-0.185,-0.1858,-0.1876,-0.1876,-0.1885,-0.1881,-0.19,-0.1883,-0.1884,-0.1882,-0.1881,-0.1883,-0.1904,-0.1904,-0.1905,-0.1905,0,-0.1835,-0.1832,-0.184,-0.1848,-0.1854,-0.186,-0.1865,-0.1871,-0.1863,-0.1871,-0.1882,-0.1888,-0.1899,-0.191,-0.1917,-0.1919,-0.1911,-0.191,-0.1914,-0.1918,-0.1918,-0.1918,-0.1861,-0.1909,-0.1909,-0.1909,-0.1908,-0.1908,-0.1871,-0.1882,-0.1884,-0.1893,-0.1895,-0.19,-0.1909,-0.1907,-0.1916,-0.1925,-0.1919,-0.1932,-0.1935,-0.1944,-0.1947,-0.1957,-0.195,-0.1956,-0.1958,-0.1959,-0.1962,-0.1916,-0.1958,-0.1958,-0.1958,-0.1958,-0.1958,0,-0.192,-0.192,-0.1928,-0.1934,-0.1941,-0.1931,-0.1935,-0.1942,-0.1953,-0.1956,-0.1963,-0.1975,-0.1984,-0.1983,-0.1992,-0.2,-0.1996,-0.2002,-0.2002,-0.2003,-0.1967,-0.1963,-0.2005,-0.2005,-0.2005,-0.2005,-0.2005,-0.2005,-0.1946,-0.1963,-0.1959,-0.1977,-0.1976,-0.1988,-0.1991,-0.1995,-0.1997,-0.201,-0.2018,-0.2016,-0.2017,-0.2025,-0.2033,-0.2033,-0.2037,-0.2044,-0.2042,-0.201,-0.2005,-0.2001,-0.1997,-0.2045,-0.2045,-0.2077,-0.2077,-0.2077]},{"header":{"parameterUnit":"m.s-1","parameterCategory":1,"la1":30.2991,"la2":30.254,"lo1":-89.0895,"lo2":-89.0444,"dy":0.0017,"dx":0.0017,"nx":28,"ny":28,"refTime":"2024-03-27T03:00:00:Z","depth":0,"parameterNumber":3,"parameterNumberName":"V-component_of_WINDS"},"data":[0,0,0,0,0,0,0,0,0,0,0,0,0,0,0,0,0,0,0,0,0,0,0,0,0,0,0,0,0,0,0,0,0,0,0,0,0,0,0,0,0,0,0,0,0,0,0,0,0,0,0,0,0,0,0,0,0,0,-5.1595,-5.1595,0,-5.1557,-5.1556,-5.1556,-5.1539,-5.1539,-5.1539,-5.1539,-5.1493,-5.1491,-5.149,0,0,0,0,0,0,0,0,0,0,0,0,0,-5.165,-5.1649,-5.1595,-5.1595,-5.1594,-5.1557,-5.1556,-5.1556,-5.1539,-5.1539,-5.1539,-5.1539,-5.1493,-5.1491,-5.149,0,0,0,0,0,0,0,0,0,0,0,0,0,-5.162,-5.1649,-5.1595,-5.1582,-5.158,-5.1557,-5.1556,-5.1556,-5.1539,-5.1539,-5.1539,-5.1539,-5.1494,-5.1492,-5.149,-5.1475,0,0,-5.1484,-5.1483,0,0,0,0,0,0,0,0,-5.1622,-5.1618,-5.1584,-5.1583,-5.1581,-5.1553,-5.1558,-5.1528,-5.1539,-5.1554,-5.1539,-5.1539,-5.1512,-5.1509,-5.1501,-5.1473,-5.1471,-5.1483,-5.1482,-5.1481,-5.1481,0,0,0,0,0,0,0,-5.1624,-5.162,-5.158,-5.1584,-5.1582,-5.1576,-5.1572,-5.1553,-5.1533,-5.1553,-5.1552,-5.1548,-5.1511,-5.1503,-5.15,-5.147,-5.1483,-5.1482,-5.148,-5.148,-5.1431,-5.1431,0,0,0,0,0,0,-5.1629,-5.1622,-5.1581,-5.1579,-5.1602,-5.1575,-5.157,-5.1562,-5.1533,-5.1529,-5.1548,-5.1547,-5.1506,-5.1502,-5.1498,-5.1481,-5.1481,-5.148,-5.1478,-5.1432,-5.1431,-5.1431,0,0,0,0,0,0,-5.1631,-5.1626,-5.1583,-5.16,-5.1594,-5.1574,-5.1564,-5.1561,-5.1553,-5.1529,-5.1525,-5.1543,-5.1506,-5.1501,-5.1482,-5.1479,-5.1479,-5.1477,-5.1432,-5.1432,-5.1431,-5.1446,0,0,0,0,0,0,-5.1632,-5.1626,-5.1621,-5.16,-5.1593,-5.1569,-5.1564,-5.156,-5.155,-5.1549,-5.1524,-5.152,-5.1506,-5.1485,-5.148,-5.1476,-5.1475,-5.1432,-5.1432,-5.1431,-5.1446,-5.1446,-5.1447,0,0,0,0,0,-5.1634,-5.1624,-5.1621,-5.1616,-5.1587,-5.1568,-5.1564,-5.1551,-5.155,-5.1544,-5.153,-5.152,-5.1481,-5.1483,-5.1478,-5.1473,-5.1432,-5.1432,-5.1431,-5.1445,-5.1446,-5.1447,0,0,0,0,0,0,-5.1642,-5.1621,-5.1617,-5.1601,-5.1587,-5.1566,-5.1558,-5.1551,-5.1535,-5.1535,-5.1516,-5.1511,-5.1494,-5.1482,-5.1485,-5.1459,-5.1455,-5.1454,-5.1468,-5.1469,-5.1469,-5.1472,-5.1474,0,0,0,0,0,-5.1643,-5.1632,-5.1613,-5.16,-5.1594,-5.1578,-5.1569,-5.156,-5.1544,-5.1537,-5.1521,-5.1504,-5.1488,-5.1478,-5.1461,-5.1444,-5.1439,-5.1438,-5.1439,-5.144,-5.1439,-5.1431,-5.1431,-5.1431,-5.1431,-5.1431,0,0,-5.1642,-5.1629,-5.1623,-5.1602,-5.159,-5.1578,-5.1572,-5.1558,-5.1549,-5.1534,-5.1517,-5.1505,-5.1485,-5.1468,-5.146,-5.1457,-5.1438,-5.144,-5.144,-5.1439,-5.1431,-5.1431,-5.1431,-5.1431,-5.1431,-5.1431,0,0,-5.1635,-5.1625,-5.1614,-5.1604,-5.1588,-5.1578,-5.1575,-5.1556,-5.1549,-5.1532,-5.1521,-5.1509,-5.1481,-5.1469,-5.1458,-5.1452,-5.1443,-5.1447,-5.145,-5.1443,-5.1443,-5.1443,-5.1442,-5.1442,-5.1446,-5.1446,-5.1446,0,-5.1636,-5.1619,-5.1609,-5.1598,-5.1589,-5.1579,-5.1568,-5.1558,-5.1536,-5.153,-5.1528,-5.1496,-5.1481,-5.1463,-5.1462,-5.1453,-5.145,-5.1449,-5.1444,-5.1444,-5.1444,-5.1443,-5.1443,-5.1447,-5.1447,-5.1447,-5.1447,0,-5.1622,-5.1611,-5.1604,-5.1588,-5.1578,-5.1567,-5.1554,-5.1546,-5.1539,-5.1529,-5.1513,-5.1497,-5.1478,-5.1473,-5.1464,-5.1454,-5.1453,-5.1448,-5.1444,-5.1445,-5.1444,-5.1443,-5.1448,-5.1447,-5.1447,-5.1447,0,0,-5.1616,-5.1598,-5.1595,-5.1589,-5.1573,-5.1563,-5.1552,-5.1538,-5.1532,-5.1518,-5.1508,-5.1487,-5.1484,-5.1473,-5.1463,-5.1457,-5.1456,-5.1453,-5.1452,-5.1455,-5.1445,-5.145,-5.1449,-5.145,-5.145,-5.145,-5.1447,0,-5.1608,-5.159,-5.1583,-5.1568,-5.1558,-5.1551,-5.1541,-5.153,-5.1521,-5.1511,-5.15,-5.1486,-5.1482,-5.1476,-5.147,-5.1457,-5.1453,-5.1457,-5.1441,-5.144,-5.1447,-5.1448,-5.1452,-5.145,-5.1447,-5.1447,-5.1446,0,-5.1595,-5.1586,-5.1571,-5.156,-5.1555,-5.1547,-5.1535,-5.1525,-5.1513,-5.1507,-5.1497,-5.1489,-5.1477,-5.1475,-5.1459,-5.1462,-5.1455,-5.1448,-5.1448,-5.1445,-5.1443,-5.1446,-5.1449,-5.1449,-5.1445,-5.1445,-5.1445,0,-5.1594,-5.1577,-5.1568,-5.1562,-5.1548,-5.1543,-5.1536,-5.1524,-5.1517,-5.1506,-5.1501,-5.1488,-5.148,-5.147,-5.1459,-5.1458,-5.1444,-5.1441,-5.1439,-5.1439,-5.1435,-5.1436,-5.1437,-5.1431,-5.1431,-5.1431,-5.1431,0,-5.1585,-5.1577,-5.1568,-5.1561,-5.1553,-5.1544,-5.1535,-5.1527,-5.1518,-5.151,-5.1501,-5.1493,-5.1479,-5.1469,-5.146,-5.1449,-5.1445,-5.144,-5.1438,-5.1441,-5.1442,-5.1436,-5.1436,-5.1431,-5.1431,-5.1431,-5.1431,0,-5.1582,-5.1575,-5.1564,-5.1554,-5.1551,-5.1545,-5.1535,-5.1529,-5.1521,-5.1512,-5.1509,-5.1496,-5.1485,-5.1473,-5.1457,-5.1451,-5.1441,-5.1437,-5.1446,-5.1445,-5.1444,-5.1445,-5.1442,-5.1442,-5.1435,-5.1435,-5.1435,0,-5.1577,-5.1571,-5.1561,-5.1557,-5.1552,-5.1544,-5.1538,-5.153,-5.1524,-5.1512,-5.1508,-5.1497,-5.1488,-5.147,-5.1459,-5.1447,-5.1443,-5.1444,-5.1441,-5.1446,-5.1445,-5.1446,-5.1446,-5.1444,-5.1444,-5.1444,-5.1444,0,-5.1569,-5.1568,-5.1561,-5.1554,-5.1548,-5.1541,-5.1534,-5.153,-5.1521,-5.1515,-5.1505,-5.1498,-5.1485,-5.1474,-5.1462,-5.1454,-5.1448,-5.1445,-5.1445,-5.1447,-5.1454,-5.1452,-5.1448,-5.1445,-5.1445,-5.1445,-5.1445,-5.1445,-5.1565,-5.1561,-5.1555,-5.1548,-5.1543,-5.1538,-5.1533,-5.1527,-5.152,-5.151,-5.1505,-5.1496,-5.1486,-5.147,-5.1463,-5.1455,-5.1453,-5.1451,-5.1451,-5.1451,-5.1453,-5.1456,-5.1453,-5.1453,-5.1453,-5.1453,-5.1452,0,-5.1558,-5.1555,-5.155,-5.1542,-5.1537,-5.1536,-5.1528,-5.1524,-5.1517,-5.151,-5.1503,-5.1493,-5.1484,-5.1474,-5.1465,-5.1461,-5.1458,-5.1458,-5.1458,-5.1457,-5.1454,-5.1457,-5.1461,-5.1461,-5.1461,-5.1461,-5.1461,-5.1461,-5.1554,-5.1548,-5.1546,-5.1538,-5.1534,-5.1527,-5.1524,-5.1519,-5.1514,-5.1505,-5.1499,-5.1494,-5.1486,-5.1476,-5.1468,-5.1465,-5.1462,-5.1464,-5.1461,-5.1458,-5.1457,-5.1456,-5.1458,-5.1464,-5.1464,-5.1464,-5.1464,-5.1464]}]]